owner,sensor,date,latitude,longitude,vertical_datum,wind_speed,wind_to_direction,wind_speed_of_gust,qcFlag 
WAVCIS,ioos:station:WAVCIS:CSI06:1,2013-04-01T00:00:00Z,28.8667,-90.4833,10.0,4.871,296.0,,'11111222,11111222,99999999' 
WAVCIS,ioos:station:WAVCIS:CSI06:1,2013-04-01T01:00:00Z,28.8667,-90.4833,10.0,8.78,10.0,,'11111222,11111222,99999999' 
WAVCIS,ioos:station:WAVCIS:CSI06:1,2013-04-01T02:00:00Z,28.8667,-90.4833,10.0,1.62,72.0,,'11111222,11111222,99999999' 
WAVCIS,ioos:station:WAVCIS:CSI06:1,2013-04-01T03:00:00Z,28.8667,-90.4833,10.0,4.559,188.0,,'11111222,11111222,99999999' 
WAVCIS,ioos:station:WAVCIS:CSI06:1,2013-04-01T04:00:00Z,28.8667,-90.4833,10.0,6.788,177.0,,'11111222,11111222,99999999' 
WAVCIS,ioos:station:WAVCIS:CSI06:1,2013-04-01T05:00:00Z,28.8667,-90.4833,10.0,8.32,177.0,,'11111222,11111222,99999999' 
WAVCIS,ioos:station:WAVCIS:CSI06:1,2013-04-01T06:00:00Z,28.8667,-90.4833,10.0,5.405,76.0,,'11111222,11111222,99999999' 
WAVCIS,ioos:station:WAVCIS:CSI06:1,2013-04-01T07:00:00Z,28.8667,-90.4833,10.0,1.698,263.0,,'11111222,11111222,99999999' 
WAVCIS,ioos:station:WAVCIS:CSI06:1,2013-04-01T08:00:00Z,28.8667,-90.4833,10.0,2.02,332.0,,'11111222,11111222,99999999' 
WAVCIS,ioos:station:WAVCIS:CSI06:1,2013-04-01T09:00:00Z,28.8667,-90.4833,10.0,0.304,313.0,,'11111222,11111222,99999999' 
WAVCIS,ioos:station:WAVCIS:CSI06:1,2013-04-01T10:00:00Z,28.8667,-90.4833,10.0,1.646,280.0,,'11111222,11111222,99999999' 
WAVCIS,ioos:station:WAVCIS:CSI06:1,2013-04-01T11:00:00Z,28.8667,-90.4833,10.0,3.154,327.0,,'11111222,11111222,99999999' 
WAVCIS,ioos:station:WAVCIS:CSI06:1,2013-04-01T12:00:00Z,28.8667,-90.4833,10.0,2.583,318.0,,'11111222,11111222,99999999' 
WAVCIS,ioos:station:WAVCIS:CSI06:1,2013-04-01T13:00:00Z,28.8667,-90.4833,10.0,3.833,326.0,,'11111222,11111222,99999999' 
WAVCIS,ioos:station:WAVCIS:CSI06:1,2013-04-01T14:00:00Z,28.8667,-90.4833,10.0,3.185,264.0,,'11111222,11111222,99999999' 
WAVCIS,ioos:station:WAVCIS:CSI06:1,2013-04-01T15:00:00Z,28.8667,-90.4833,10.0,3.317,288.0,,'11111222,11111222,99999999' 
WAVCIS,ioos:station:WAVCIS:CSI06:1,2013-04-01T16:00:00Z,28.8667,-90.4833,10.0,3.499,9.0,,'11111222,11111222,99999999' 
WAVCIS,ioos:station:WAVCIS:CSI06:1,2013-04-01T17:00:00Z,28.8667,-90.4833,10.0,3.238,9.0,,'11111222,11111222,99999999' 
WAVCIS,ioos:station:WAVCIS:CSI06:1,2013-04-01T18:00:00Z,28.8667,-90.4833,10.0,3.251,6.0,,'11111222,11111222,99999999' 
WAVCIS,ioos:station:WAVCIS:CSI06:1,2013-04-01T19:00:00Z,28.8667,-90.4833,10.0,3.774,14.0,,'11111222,11111222,99999999' 
WAVCIS,ioos:station:WAVCIS:CSI06:1,2013-04-01T20:00:00Z,28.8667,-90.4833,10.0,1.899,32.0,,'11111222,11111222,99999999' 
WAVCIS,ioos:station:WAVCIS:CSI06:1,2013-04-01T21:00:00Z,28.8667,-90.4833,10.0,2.303,59.0,,'11111222,11111222,99999999' 
WAVCIS,ioos:station:WAVCIS:CSI06:1,2013-04-01T22:00:00Z,28.8667,-90.4833,10.0,3.176,100.0,,'11111222,11111222,99999999' 
WAVCIS,ioos:station:WAVCIS:CSI06:1,2013-04-01T23:00:00Z,28.8667,-90.4833,10.0,3.663,116.0,,'11111222,11111222,99999999' 
WAVCIS,ioos:station:WAVCIS:CSI06:1,2013-04-02T00:00:00Z,28.8667,-90.4833,10.0,4.377,116.0,,'11111222,11111222,99999999' 
WAVCIS,ioos:station:WAVCIS:CSI06:1,2013-04-02T01:00:00Z,28.8667,-90.4833,10.0,5.672,126.0,,'11111222,11111222,99999999' 
WAVCIS,ioos:station:WAVCIS:CSI06:1,2013-04-02T02:00:00Z,28.8667,-90.4833,10.0,6.372,131.0,,'11111222,11111222,99999999' 
WAVCIS,ioos:station:WAVCIS:CSI06:1,2013-04-02T03:00:00Z,28.8667,-90.4833,10.0,5.231,134.0,,'11111222,11111222,99999999' 
WAVCIS,ioos:station:WAVCIS:CSI06:1,2013-04-02T04:00:00Z,28.8667,-90.4833,10.0,4.449,104.0,,'11111222,11111222,99999999' 
WAVCIS,ioos:station:WAVCIS:CSI06:1,2013-04-02T05:00:00Z,28.8667,-90.4833,10.0,3.873,110.0,,'11111222,11111222,99999999' 
WAVCIS,ioos:station:WAVCIS:CSI06:1,2013-04-02T06:00:00Z,28.8667,-90.4833,10.0,3.898,100.0,,'11111222,11111222,99999999' 
WAVCIS,ioos:station:WAVCIS:CSI06:1,2013-04-02T07:00:00Z,28.8667,-90.4833,10.0,5.05,99.0,,'11111222,11111222,99999999' 
WAVCIS,ioos:station:WAVCIS:CSI06:1,2013-04-02T08:00:00Z,28.8667,-90.4833,10.0,5.633,82.0,,'11111222,11111222,99999999' 
WAVCIS,ioos:station:WAVCIS:CSI06:1,2013-04-02T09:00:00Z,28.8667,-90.4833,10.0,6.8,76.0,,'11111222,11111222,99999999' 
WAVCIS,ioos:station:WAVCIS:CSI06:1,2013-04-02T10:00:00Z,28.8667,-90.4833,10.0,7.46,81.0,,'11111222,11111222,99999999' 
WAVCIS,ioos:station:WAVCIS:CSI06:1,2013-04-02T11:00:00Z,28.8667,-90.4833,10.0,7.71,85.0,,'11111222,11111222,99999999' 
WAVCIS,ioos:station:WAVCIS:CSI06:1,2013-04-02T12:00:00Z,28.8667,-90.4833,10.0,7.48,86.0,,'11111222,11111222,99999999' 
WAVCIS,ioos:station:WAVCIS:CSI06:1,2013-04-02T13:00:00Z,28.8667,-90.4833,10.0,8.07,95.0,,'11111222,11111222,99999999' 
WAVCIS,ioos:station:WAVCIS:CSI06:1,2013-04-02T14:00:00Z,28.8667,-90.4833,10.0,9.31,87.0,,'11111222,11111222,99999999' 
WAVCIS,ioos:station:WAVCIS:CSI06:1,2013-04-02T15:00:00Z,28.8667,-90.4833,10.0,8.31,91.0,,'11111222,11111222,99999999' 
WAVCIS,ioos:station:WAVCIS:CSI06:1,2013-04-02T16:00:00Z,28.8667,-90.4833,10.0,6.856,105.0,,'11111222,11111222,99999999' 
WAVCIS,ioos:station:WAVCIS:CSI06:1,2013-04-02T17:00:00Z,28.8667,-90.4833,10.0,5.54,97.0,,'11111222,11111222,99999999' 
WAVCIS,ioos:station:WAVCIS:CSI06:1,2013-04-02T18:00:00Z,28.8667,-90.4833,10.0,6.314,83.0,,'11111222,11111222,99999999' 
WAVCIS,ioos:station:WAVCIS:CSI06:1,2013-04-02T19:00:00Z,28.8667,-90.4833,10.0,6.746,74.0,,'11111222,11111222,99999999' 
WAVCIS,ioos:station:WAVCIS:CSI06:1,2013-04-02T20:00:00Z,28.8667,-90.4833,10.0,8.82,82.0,,'11111222,11111222,99999999' 
WAVCIS,ioos:station:WAVCIS:CSI06:1,2013-04-02T21:00:00Z,28.8667,-90.4833,10.0,9.49,84.0,,'11111222,11111222,99999999' 
WAVCIS,ioos:station:WAVCIS:CSI06:1,2013-04-02T22:00:00Z,28.8667,-90.4833,10.0,9.59,85.0,,'11111222,11111222,99999999' 
WAVCIS,ioos:station:WAVCIS:CSI06:1,2013-04-02T23:00:00Z,28.8667,-90.4833,10.0,8.31,86.0,,'11111222,11111222,99999999' 
WAVCIS,ioos:station:WAVCIS:CSI06:1,2013-04-03T00:00:00Z,28.8667,-90.4833,10.0,9.17,89.0,,'11111222,11111222,99999999' 
WAVCIS,ioos:station:WAVCIS:CSI06:1,2013-04-03T01:00:00Z,28.8667,-90.4833,10.0,9.74,85.0,,'11111222,11111222,99999999' 
WAVCIS,ioos:station:WAVCIS:CSI06:1,2013-04-03T02:00:00Z,28.8667,-90.4833,10.0,7.71,90.0,,'11111222,11111222,99999999' 
WAVCIS,ioos:station:WAVCIS:CSI06:1,2013-04-03T03:00:00Z,28.8667,-90.4833,10.0,9.08,111.0,,'11111222,11111222,99999999' 
WAVCIS,ioos:station:WAVCIS:CSI06:1,2013-04-03T04:00:00Z,28.8667,-90.4833,10.0,8.78,127.0,,'11111222,11111222,99999999' 
WAVCIS,ioos:station:WAVCIS:CSI06:1,2013-04-03T05:00:00Z,28.8667,-90.4833,10.0,8.79,145.0,,'11111222,11111222,99999999' 
WAVCIS,ioos:station:WAVCIS:CSI06:1,2013-04-03T06:00:00Z,28.8667,-90.4833,10.0,4.227,173.0,,'11111222,11111222,99999999' 
WAVCIS,ioos:station:WAVCIS:CSI06:1,2013-04-03T07:00:00Z,28.8667,-90.4833,10.0,0.616,115.0,,'11111222,11111222,99999999' 
WAVCIS,ioos:station:WAVCIS:CSI06:1,2013-04-03T08:00:00Z,28.8667,-90.4833,10.0,3.684,110.0,,'11111222,11111222,99999999' 
WAVCIS,ioos:station:WAVCIS:CSI06:1,2013-04-03T09:00:00Z,28.8667,-90.4833,10.0,3.476,30.0,,'11111222,11111222,99999999' 
WAVCIS,ioos:station:WAVCIS:CSI06:1,2013-04-03T10:00:00Z,28.8667,-90.4833,10.0,8.98,55.0,,'11111222,11111222,99999999' 
WAVCIS,ioos:station:WAVCIS:CSI06:1,2013-04-03T11:00:00Z,28.8667,-90.4833,10.0,10.14,56.0,,'11111222,11111222,99999999' 
WAVCIS,ioos:station:WAVCIS:CSI06:1,2013-04-03T12:00:00Z,28.8667,-90.4833,10.0,15.89,68.0,,'11111222,11111222,99999999' 
WAVCIS,ioos:station:WAVCIS:CSI06:1,2013-04-03T13:00:00Z,28.8667,-90.4833,10.0,15.63,328.0,,'11111222,11111222,99999999' 
WAVCIS,ioos:station:WAVCIS:CSI06:1,2013-04-03T14:00:00Z,28.8667,-90.4833,10.0,9.52,350.0,,'11111222,11111222,99999999' 
WAVCIS,ioos:station:WAVCIS:CSI06:1,2013-04-03T15:00:00Z,28.8667,-90.4833,10.0,12.12,37.0,,'11111222,11111222,99999999' 
WAVCIS,ioos:station:WAVCIS:CSI06:1,2013-04-03T16:00:00Z,28.8667,-90.4833,10.0,18.35,81.0,,'11111222,11111222,99999999' 
WAVCIS,ioos:station:WAVCIS:CSI06:1,2013-04-03T17:00:00Z,28.8667,-90.4833,10.0,17.82,92.0,,'11111222,11111222,99999999' 
WAVCIS,ioos:station:WAVCIS:CSI06:1,2013-04-03T18:00:00Z,28.8667,-90.4833,10.0,12.98,97.0,,'11111222,11111222,99999999' 
WAVCIS,ioos:station:WAVCIS:CSI06:1,2013-04-03T19:00:00Z,28.8667,-90.4833,10.0,10.39,270.0,,'11111222,11111222,99999999' 
WAVCIS,ioos:station:WAVCIS:CSI06:1,2013-04-03T20:00:00Z,28.8667,-90.4833,10.0,5.704,300.0,,'11111222,11111222,99999999' 
WAVCIS,ioos:station:WAVCIS:CSI06:1,2013-04-03T21:00:00Z,28.8667,-90.4833,10.0,2.304,13.0,,'11111222,11111222,99999999' 
WAVCIS,ioos:station:WAVCIS:CSI06:1,2013-04-03T22:00:00Z,28.8667,-90.4833,10.0,1.357,106.0,,'11111222,11111222,99999999' 
WAVCIS,ioos:station:WAVCIS:CSI06:1,2013-04-03T23:00:00Z,28.8667,-90.4833,10.0,2.707,106.0,,'11111222,11111222,99999999' 
WAVCIS,ioos:station:WAVCIS:CSI06:1,2013-04-04T00:00:00Z,28.8667,-90.4833,10.0,2.866,80.0,,'11111222,11111222,99999999' 
WAVCIS,ioos:station:WAVCIS:CSI06:1,2013-04-04T01:00:00Z,28.8667,-90.4833,10.0,1.271,18.0,,'11111222,11111222,99999999' 
WAVCIS,ioos:station:WAVCIS:CSI06:1,2013-04-04T02:00:00Z,28.8667,-90.4833,10.0,9.56,10.0,,'11111222,11111222,99999999' 
WAVCIS,ioos:station:WAVCIS:CSI06:1,2013-04-04T03:00:00Z,28.8667,-90.4833,10.0,10.11,12.0,,'11111222,11111222,99999999' 
WAVCIS,ioos:station:WAVCIS:CSI06:1,2013-04-04T04:00:00Z,28.8667,-90.4833,10.0,10.8,23.0,,'11111222,11111222,99999999' 
WAVCIS,ioos:station:WAVCIS:CSI06:1,2013-04-04T05:00:00Z,28.8667,-90.4833,10.0,9.05,37.0,,'11111222,11111222,99999999' 
WAVCIS,ioos:station:WAVCIS:CSI06:1,2013-04-04T06:00:00Z,28.8667,-90.4833,10.0,8.71,16.0,,'11111222,11111222,99999999' 
WAVCIS,ioos:station:WAVCIS:CSI06:1,2013-04-04T07:00:00Z,28.8667,-90.4833,10.0,7.43,27.0,,'11111222,11111222,99999999' 
WAVCIS,ioos:station:WAVCIS:CSI06:1,2013-04-04T08:00:00Z,28.8667,-90.4833,10.0,5.082,36.0,,'11111222,11111222,99999999' 
WAVCIS,ioos:station:WAVCIS:CSI06:1,2013-04-04T09:00:00Z,28.8667,-90.4833,10.0,4.214,14.0,,'11111222,11111222,99999999' 
WAVCIS,ioos:station:WAVCIS:CSI06:1,2013-04-04T10:00:00Z,28.8667,-90.4833,10.0,5.402,70.0,,'11111222,11111222,99999999' 
WAVCIS,ioos:station:WAVCIS:CSI06:1,2013-04-04T11:00:00Z,28.8667,-90.4833,10.0,4.064,332.0,,'11111222,11111222,99999999' 
WAVCIS,ioos:station:WAVCIS:CSI06:1,2013-04-04T12:00:00Z,28.8667,-90.4833,10.0,7.33,329.0,,'11111222,11111222,99999999' 
WAVCIS,ioos:station:WAVCIS:CSI06:1,2013-04-04T13:00:00Z,28.8667,-90.4833,10.0,7.37,331.0,,'11111222,11111222,99999999' 
WAVCIS,ioos:station:WAVCIS:CSI06:1,2013-04-04T14:00:00Z,28.8667,-90.4833,10.0,8.24,327.0,,'11111222,11111222,99999999' 
WAVCIS,ioos:station:WAVCIS:CSI06:1,2013-04-04T15:00:00Z,28.8667,-90.4833,10.0,8.96,324.0,,'11111222,11111222,99999999' 
WAVCIS,ioos:station:WAVCIS:CSI06:1,2013-04-04T16:00:00Z,28.8667,-90.4833,10.0,10.46,315.0,,'11111222,11111222,99999999' 
WAVCIS,ioos:station:WAVCIS:CSI06:1,2013-04-04T17:00:00Z,28.8667,-90.4833,10.0,11.57,306.0,,'11111222,11111222,99999999' 
WAVCIS,ioos:station:WAVCIS:CSI06:1,2013-04-04T18:00:00Z,28.8667,-90.4833,10.0,12.45,305.0,,'11111222,11111222,99999999' 
WAVCIS,ioos:station:WAVCIS:CSI06:1,2013-04-04T19:00:00Z,28.8667,-90.4833,10.0,9.73,313.0,,'11111222,11111222,99999999' 
WAVCIS,ioos:station:WAVCIS:CSI06:1,2013-04-04T20:00:00Z,28.8667,-90.4833,10.0,10.36,312.0,,'11111222,11111222,99999999' 
WAVCIS,ioos:station:WAVCIS:CSI06:1,2013-04-04T21:00:00Z,28.8667,-90.4833,10.0,9.43,302.0,,'11111222,11111222,99999999' 
WAVCIS,ioos:station:WAVCIS:CSI06:1,2013-04-04T22:00:00Z,28.8667,-90.4833,10.0,9.32,298.0,,'11111222,11111222,99999999' 
WAVCIS,ioos:station:WAVCIS:CSI06:1,2013-04-04T23:00:00Z,28.8667,-90.4833,10.0,11.18,285.0,,'11111222,11111222,99999999' 
WAVCIS,ioos:station:WAVCIS:CSI06:1,2013-04-05T00:00:00Z,28.8667,-90.4833,10.0,10.44,286.0,,'11111222,11111222,99999999' 
WAVCIS,ioos:station:WAVCIS:CSI06:1,2013-04-05T01:00:00Z,28.8667,-90.4833,10.0,13.23,311.0,,'11111222,11111222,99999999' 
WAVCIS,ioos:station:WAVCIS:CSI06:1,2013-04-05T02:00:00Z,28.8667,-90.4833,10.0,10.95,313.0,,'11111222,11111222,99999999' 
WAVCIS,ioos:station:WAVCIS:CSI06:1,2013-04-05T03:00:00Z,28.8667,-90.4833,10.0,10.31,327.0,,'11111222,11111222,99999999' 
WAVCIS,ioos:station:WAVCIS:CSI06:1,2013-04-05T04:00:00Z,28.8667,-90.4833,10.0,11.23,323.0,,'11111222,11111222,99999999' 
WAVCIS,ioos:station:WAVCIS:CSI06:1,2013-04-05T05:00:00Z,28.8667,-90.4833,10.0,9.98,332.0,,'11111222,11111222,99999999' 
WAVCIS,ioos:station:WAVCIS:CSI06:1,2013-04-05T06:00:00Z,28.8667,-90.4833,10.0,10.26,330.0,,'11111222,11111222,99999999' 
WAVCIS,ioos:station:WAVCIS:CSI06:1,2013-04-05T07:00:00Z,28.8667,-90.4833,10.0,9.05,337.0,,'11111222,11111222,99999999' 
WAVCIS,ioos:station:WAVCIS:CSI06:1,2013-04-05T08:00:00Z,28.8667,-90.4833,10.0,11.12,333.0,,'11111222,11111222,99999999' 
WAVCIS,ioos:station:WAVCIS:CSI06:1,2013-04-05T09:00:00Z,28.8667,-90.4833,10.0,9.35,331.0,,'11111222,11111222,99999999' 
WAVCIS,ioos:station:WAVCIS:CSI06:1,2013-04-05T10:00:00Z,28.8667,-90.4833,10.0,9.43,331.0,,'11111222,11111222,99999999' 
WAVCIS,ioos:station:WAVCIS:CSI06:1,2013-04-05T11:00:00Z,28.8667,-90.4833,10.0,8.43,331.0,,'11111222,11111222,99999999' 
WAVCIS,ioos:station:WAVCIS:CSI06:1,2013-04-05T12:00:00Z,28.8667,-90.4833,10.0,9.96,335.0,,'11111222,11111222,99999999' 
WAVCIS,ioos:station:WAVCIS:CSI06:1,2013-04-05T13:00:00Z,28.8667,-90.4833,10.0,6.904,337.0,,'11111222,11111222,99999999' 
WAVCIS,ioos:station:WAVCIS:CSI06:1,2013-04-05T14:00:00Z,28.8667,-90.4833,10.0,7.29,345.0,,'11111222,11111222,99999999' 
WAVCIS,ioos:station:WAVCIS:CSI06:1,2013-04-05T15:00:00Z,28.8667,-90.4833,10.0,7.15,354.0,,'11111222,11111222,99999999' 
WAVCIS,ioos:station:WAVCIS:CSI06:1,2013-04-05T16:00:00Z,28.8667,-90.4833,10.0,6.136,355.0,,'11111222,11111222,99999999' 
WAVCIS,ioos:station:WAVCIS:CSI06:1,2013-04-05T17:00:00Z,28.8667,-90.4833,10.0,8.13,11.0,,'11111222,11111222,99999999' 
WAVCIS,ioos:station:WAVCIS:CSI06:1,2013-04-05T18:00:00Z,28.8667,-90.4833,10.0,5.441,354.0,,'11111222,11111222,99999999' 
WAVCIS,ioos:station:WAVCIS:CSI06:1,2013-04-05T19:00:00Z,28.8667,-90.4833,10.0,6.332,8.0,,'11111222,11111222,99999999' 
WAVCIS,ioos:station:WAVCIS:CSI06:1,2013-04-05T20:00:00Z,28.8667,-90.4833,10.0,6.617,10.0,,'11111222,11111222,99999999' 
WAVCIS,ioos:station:WAVCIS:CSI06:1,2013-04-05T21:00:00Z,28.8667,-90.4833,10.0,5.845,11.0,,'11111222,11111222,99999999' 
WAVCIS,ioos:station:WAVCIS:CSI06:1,2013-04-05T22:00:00Z,28.8667,-90.4833,10.0,4.255,14.0,,'11111222,11111222,99999999' 
WAVCIS,ioos:station:WAVCIS:CSI06:1,2013-04-05T23:00:00Z,28.8667,-90.4833,10.0,5.862,21.0,,'11111222,11111222,99999999' 
WAVCIS,ioos:station:WAVCIS:CSI06:1,2013-04-06T00:00:00Z,28.8667,-90.4833,10.0,5.8,18.0,,'11111222,11111222,99999999' 
WAVCIS,ioos:station:WAVCIS:CSI06:1,2013-04-06T01:00:00Z,28.8667,-90.4833,10.0,6.109,15.0,,'11111222,11111222,99999999' 
WAVCIS,ioos:station:WAVCIS:CSI06:1,2013-04-06T02:00:00Z,28.8667,-90.4833,10.0,3.641,5.0,,'11111222,11111222,99999999' 
WAVCIS,ioos:station:WAVCIS:CSI06:1,2013-04-06T03:00:00Z,28.8667,-90.4833,10.0,4.127,331.0,,'11111222,11111222,99999999' 
WAVCIS,ioos:station:WAVCIS:CSI06:1,2013-04-06T04:00:00Z,28.8667,-90.4833,10.0,4.462,322.0,,'11111222,11111222,99999999' 
WAVCIS,ioos:station:WAVCIS:CSI06:1,2013-04-06T05:00:00Z,28.8667,-90.4833,10.0,2.992,335.0,,'11111222,11111222,99999999' 
WAVCIS,ioos:station:WAVCIS:CSI06:1,2013-04-06T06:00:00Z,28.8667,-90.4833,10.0,2.691,334.0,,'11111222,11111222,99999999' 
WAVCIS,ioos:station:WAVCIS:CSI06:1,2013-04-06T07:00:00Z,28.8667,-90.4833,10.0,3.267,16.0,,'11111222,11111222,99999999' 
WAVCIS,ioos:station:WAVCIS:CSI06:1,2013-04-06T08:00:00Z,28.8667,-90.4833,10.0,3.227,13.0,,'11111222,11111222,99999999' 
WAVCIS,ioos:station:WAVCIS:CSI06:1,2013-04-06T09:00:00Z,28.8667,-90.4833,10.0,3.867,14.0,,'11111222,11111222,99999999' 
WAVCIS,ioos:station:WAVCIS:CSI06:1,2013-04-06T10:00:00Z,28.8667,-90.4833,10.0,2.96,20.0,,'11111222,11111222,99999999' 
WAVCIS,ioos:station:WAVCIS:CSI06:1,2013-04-06T11:00:00Z,28.8667,-90.4833,10.0,2.197,102.0,,'11111222,11111222,99999999' 
WAVCIS,ioos:station:WAVCIS:CSI06:1,2013-04-06T12:00:00Z,28.8667,-90.4833,10.0,3.407,93.0,,'11111222,11111222,99999999' 
WAVCIS,ioos:station:WAVCIS:CSI06:1,2013-04-06T13:00:00Z,28.8667,-90.4833,10.0,4.192,111.0,,'11111222,11111222,99999999' 
WAVCIS,ioos:station:WAVCIS:CSI06:1,2013-04-06T14:00:00Z,28.8667,-90.4833,10.0,3.693,131.0,,'11111222,11111222,99999999' 
WAVCIS,ioos:station:WAVCIS:CSI06:1,2013-04-06T15:00:00Z,28.8667,-90.4833,10.0,3.394,120.0,,'11111222,11111222,99999999' 
WAVCIS,ioos:station:WAVCIS:CSI06:1,2013-04-06T16:00:00Z,28.8667,-90.4833,10.0,4.331,109.0,,'11111222,11111222,99999999' 
WAVCIS,ioos:station:WAVCIS:CSI06:1,2013-04-06T17:00:00Z,28.8667,-90.4833,10.0,3.013,94.0,,'11111222,11111222,99999999' 
WAVCIS,ioos:station:WAVCIS:CSI06:1,2013-04-06T18:00:00Z,28.8667,-90.4833,10.0,2.644,76.0,,'11111222,11111222,99999999' 
WAVCIS,ioos:station:WAVCIS:CSI06:1,2013-04-06T19:00:00Z,28.8667,-90.4833,10.0,3.925,73.0,,'11111222,11111222,99999999' 
WAVCIS,ioos:station:WAVCIS:CSI06:1,2013-04-06T20:00:00Z,28.8667,-90.4833,10.0,3.689,73.0,,'11111222,11111222,99999999' 
WAVCIS,ioos:station:WAVCIS:CSI06:1,2013-04-06T21:00:00Z,28.8667,-90.4833,10.0,4.299,77.0,,'11111222,11111222,99999999' 
WAVCIS,ioos:station:WAVCIS:CSI06:1,2013-04-06T22:00:00Z,28.8667,-90.4833,10.0,4.92,98.0,,'11111222,11111222,99999999' 
WAVCIS,ioos:station:WAVCIS:CSI06:1,2013-04-06T23:00:00Z,28.8667,-90.4833,10.0,5.752,100.0,,'11111222,11111222,99999999' 
WAVCIS,ioos:station:WAVCIS:CSI06:1,2013-04-07T00:00:00Z,28.8667,-90.4833,10.0,5.382,85.0,,'11111222,11111222,99999999' 
WAVCIS,ioos:station:WAVCIS:CSI06:1,2013-04-07T01:00:00Z,28.8667,-90.4833,10.0,6.647,89.0,,'11111222,11111222,99999999' 
WAVCIS,ioos:station:WAVCIS:CSI06:1,2013-04-07T02:00:00Z,28.8667,-90.4833,10.0,6.839,95.0,,'11111222,11111222,99999999' 
WAVCIS,ioos:station:WAVCIS:CSI06:1,2013-04-07T03:00:00Z,28.8667,-90.4833,10.0,5.939,108.0,,'11111222,11111222,99999999' 
WAVCIS,ioos:station:WAVCIS:CSI06:1,2013-04-07T04:00:00Z,28.8667,-90.4833,10.0,5.047,113.0,,'11111222,11111222,99999999' 
WAVCIS,ioos:station:WAVCIS:CSI06:1,2013-04-07T05:00:00Z,28.8667,-90.4833,10.0,4.215,123.0,,'11111222,11111222,99999999' 
WAVCIS,ioos:station:WAVCIS:CSI06:1,2013-04-07T06:00:00Z,28.8667,-90.4833,10.0,7.36,122.0,,'11111222,11111222,99999999' 
WAVCIS,ioos:station:WAVCIS:CSI06:1,2013-04-07T07:00:00Z,28.8667,-90.4833,10.0,7.82,128.0,,'11111222,11111222,99999999' 
WAVCIS,ioos:station:WAVCIS:CSI06:1,2013-04-07T08:00:00Z,28.8667,-90.4833,10.0,7.54,128.0,,'11111222,11111222,99999999' 
WAVCIS,ioos:station:WAVCIS:CSI06:1,2013-04-07T09:00:00Z,28.8667,-90.4833,10.0,6.88,125.0,,'11111222,11111222,99999999' 
WAVCIS,ioos:station:WAVCIS:CSI06:1,2013-04-07T10:00:00Z,28.8667,-90.4833,10.0,6.454,129.0,,'11111222,11111222,99999999' 
WAVCIS,ioos:station:WAVCIS:CSI06:1,2013-04-07T11:00:00Z,28.8667,-90.4833,10.0,5.689,129.0,,'11111222,11111222,99999999' 
WAVCIS,ioos:station:WAVCIS:CSI06:1,2013-04-07T12:00:00Z,28.8667,-90.4833,10.0,5.38,122.0,,'11111222,11111222,99999999' 
WAVCIS,ioos:station:WAVCIS:CSI06:1,2013-04-07T13:00:00Z,28.8667,-90.4833,10.0,6.171,119.0,,'11111222,11111222,99999999' 
WAVCIS,ioos:station:WAVCIS:CSI06:1,2013-04-07T14:00:00Z,28.8667,-90.4833,10.0,5.387,116.0,,'11111222,11111222,99999999' 
WAVCIS,ioos:station:WAVCIS:CSI06:1,2013-04-07T15:00:00Z,28.8667,-90.4833,10.0,5.614,110.0,,'11111222,11111222,99999999' 
WAVCIS,ioos:station:WAVCIS:CSI06:1,2013-04-07T16:00:00Z,28.8667,-90.4833,10.0,5.515,107.0,,'11111222,11111222,99999999' 
WAVCIS,ioos:station:WAVCIS:CSI06:1,2013-04-07T17:00:00Z,28.8667,-90.4833,10.0,5.25,104.0,,'11111222,11111222,99999999' 
WAVCIS,ioos:station:WAVCIS:CSI06:1,2013-04-07T18:00:00Z,28.8667,-90.4833,10.0,5.339,99.0,,'11111222,11111222,99999999' 
WAVCIS,ioos:station:WAVCIS:CSI06:1,2013-04-07T19:00:00Z,28.8667,-90.4833,10.0,5.247,103.0,,'11111222,11111222,99999999' 
WAVCIS,ioos:station:WAVCIS:CSI06:1,2013-04-07T20:00:00Z,28.8667,-90.4833,10.0,4.77,100.0,,'11111222,11111222,99999999' 
WAVCIS,ioos:station:WAVCIS:CSI06:1,2013-04-07T21:00:00Z,28.8667,-90.4833,10.0,5.274,90.0,,'11111222,11111222,99999999' 
WAVCIS,ioos:station:WAVCIS:CSI06:1,2013-04-07T22:00:00Z,28.8667,-90.4833,10.0,6.049,102.0,,'11111222,11111222,99999999' 
WAVCIS,ioos:station:WAVCIS:CSI06:1,2013-04-07T23:00:00Z,28.8667,-90.4833,10.0,6.292,110.0,,'11111222,11111222,99999999' 
WAVCIS,ioos:station:WAVCIS:CSI06:1,2013-04-08T00:00:00Z,28.8667,-90.4833,10.0,6.912,118.0,,'11111222,11111222,99999999' 
WAVCIS,ioos:station:WAVCIS:CSI06:1,2013-04-08T01:00:00Z,28.8667,-90.4833,10.0,6.791,123.0,,'11111222,11111222,99999999' 
WAVCIS,ioos:station:WAVCIS:CSI06:1,2013-04-08T02:00:00Z,28.8667,-90.4833,10.0,8.82,130.0,,'11111222,11111222,99999999' 
WAVCIS,ioos:station:WAVCIS:CSI06:1,2013-04-08T03:00:00Z,28.8667,-90.4833,10.0,9.3,133.0,,'11111222,11111222,99999999' 
WAVCIS,ioos:station:WAVCIS:CSI06:1,2013-04-08T04:00:00Z,28.8667,-90.4833,10.0,8.75,138.0,,'11111222,11111222,99999999' 
WAVCIS,ioos:station:WAVCIS:CSI06:1,2013-04-08T05:00:00Z,28.8667,-90.4833,10.0,7.69,137.0,,'11111222,11111222,99999999' 
WAVCIS,ioos:station:WAVCIS:CSI06:1,2013-04-08T06:00:00Z,28.8667,-90.4833,10.0,7.51,134.0,,'11111222,11111222,99999999' 
WAVCIS,ioos:station:WAVCIS:CSI06:1,2013-04-08T07:00:00Z,28.8667,-90.4833,10.0,6.172,146.0,,'11111222,11111222,99999999' 
WAVCIS,ioos:station:WAVCIS:CSI06:1,2013-04-08T08:00:00Z,28.8667,-90.4833,10.0,5.703,139.0,,'11111222,11111222,99999999' 
WAVCIS,ioos:station:WAVCIS:CSI06:1,2013-04-08T09:00:00Z,28.8667,-90.4833,10.0,5.195,124.0,,'11111222,11111222,99999999' 
WAVCIS,ioos:station:WAVCIS:CSI06:1,2013-04-08T10:00:00Z,28.8667,-90.4833,10.0,4.309,115.0,,'11111222,11111222,99999999' 
WAVCIS,ioos:station:WAVCIS:CSI06:1,2013-04-08T11:00:00Z,28.8667,-90.4833,10.0,5.596,107.0,,'11111222,11111222,99999999' 
WAVCIS,ioos:station:WAVCIS:CSI06:1,2013-04-08T12:00:00Z,28.8667,-90.4833,10.0,6.198,99.0,,'11111222,11111222,99999999' 
WAVCIS,ioos:station:WAVCIS:CSI06:1,2013-04-08T13:00:00Z,28.8667,-90.4833,10.0,6.84,103.0,,'11111222,11111222,99999999' 
WAVCIS,ioos:station:WAVCIS:CSI06:1,2013-04-08T14:00:00Z,28.8667,-90.4833,10.0,7.61,108.0,,'11111222,11111222,99999999' 
WAVCIS,ioos:station:WAVCIS:CSI06:1,2013-04-08T15:00:00Z,28.8667,-90.4833,10.0,9.01,114.0,,'11111222,11111222,99999999' 
WAVCIS,ioos:station:WAVCIS:CSI06:1,2013-04-08T16:00:00Z,28.8667,-90.4833,10.0,7.68,121.0,,'11111222,11111222,99999999' 
WAVCIS,ioos:station:WAVCIS:CSI06:1,2013-04-08T17:00:00Z,28.8667,-90.4833,10.0,8.96,114.0,,'11111222,11111222,99999999' 
WAVCIS,ioos:station:WAVCIS:CSI06:1,2013-04-08T18:00:00Z,28.8667,-90.4833,10.0,7.77,111.0,,'11111222,11111222,99999999' 
WAVCIS,ioos:station:WAVCIS:CSI06:1,2013-04-08T19:00:00Z,28.8667,-90.4833,10.0,7.21,111.0,,'11111222,11111222,99999999' 
WAVCIS,ioos:station:WAVCIS:CSI06:1,2013-04-08T20:00:00Z,28.8667,-90.4833,10.0,7.51,113.0,,'11111222,11111222,99999999' 
WAVCIS,ioos:station:WAVCIS:CSI06:1,2013-04-08T21:00:00Z,28.8667,-90.4833,10.0,7.24,108.0,,'11111222,11111222,99999999' 
WAVCIS,ioos:station:WAVCIS:CSI06:1,2013-04-08T22:00:00Z,28.8667,-90.4833,10.0,6.022,115.0,,'11111222,11111222,99999999' 
WAVCIS,ioos:station:WAVCIS:CSI06:1,2013-04-08T23:00:00Z,28.8667,-90.4833,10.0,5.806,119.0,,'11111222,11111222,99999999' 
WAVCIS,ioos:station:WAVCIS:CSI06:1,2013-04-09T00:00:00Z,28.8667,-90.4833,10.0,6.817,111.0,,'11111222,11111222,99999999' 
WAVCIS,ioos:station:WAVCIS:CSI06:1,2013-04-09T01:00:00Z,28.8667,-90.4833,10.0,10.43,109.0,,'11111222,11111222,99999999' 
WAVCIS,ioos:station:WAVCIS:CSI06:1,2013-04-09T02:00:00Z,28.8667,-90.4833,10.0,9.96,112.0,,'11111222,11111222,99999999' 
WAVCIS,ioos:station:WAVCIS:CSI06:1,2013-04-09T03:00:00Z,28.8667,-90.4833,10.0,11.55,114.0,,'11111222,11111222,99999999' 
WAVCIS,ioos:station:WAVCIS:CSI06:1,2013-04-09T04:00:00Z,28.8667,-90.4833,10.0,11.27,117.0,,'11111222,11111222,99999999' 
WAVCIS,ioos:station:WAVCIS:CSI06:1,2013-04-09T05:00:00Z,28.8667,-90.4833,10.0,10.82,123.0,,'11111222,11111222,99999999' 